Location: Chevoux
(46.3801°N, 4.9476°E)
Time: 04:51:11
(UTC+00:00)

Envisat - Pass Details

Date: 10 December 2021
Orbit: 764 x 766 km, 98.2° (Epoch: 16 January)

Event Time Altitude Azimuth Distance (km) Brightness Sun altitude
Rises 05:07:34 0° 10° (N) 3,244 6.2 -20.6°
Reaches altitude 10° 05:09:54 10° 7° (N) 2,313 5.4 -20.2°
Maximum altitude 05:14:55 62° 288° (WNW) 861 2.9 -19.4°
Drops below altitude 10° 05:19:55 10° 209° (SSW) 2,295 5.3 -18.6°
Sets 05:22:13 0° 206° (SSW) 3,217 6.1 -18.2°
